Regional Weather Roundup
Issued by NWS

Home | Current Version | Previous Version | Text Only | Print | Product List | Glossary On
Versions: 1 2 3 4 5 6 7 8 9 10 11 12 13 14 15 16 17 18 19 20 21 22 23 24 25 26 27 28 29 30 31 32 33 34 35 36 37 38 39 40 41 42 43 44 45 46 47 48 49 50
584
ASUS44 KLIX 111513
RWRLA
LOUISIANA WEATHER ROUNDUP
NATIONAL WEATHER SERVICE NEW ORLEANS LA
900 AM CST SUN DEC 11 2016

NOTE: "FAIR" INDICATES FEW OR NO CLOUDS BELOW 12,000 FEET WITH NO
      SIGNIFICANT WEATHER AND/OR OBSTRUCTIONS TO VISIBILITY.
      SKY/WX - SKY CONDITION AND SIGNIFICANT WEATHER.
      TMP - AIR TEMPERATURE.    DP   - DEWPOINT TEMPERATURE.
      RH  - RELATIVE HUMIDITY.  PRES - PRESSURE.
      HX  - HEAT INDEX.         WCI  - WIND CHILL INDEX.

*  THESE STATIONS ARE NOT NWS OR FAA STATIONS AND ARE NOT UNDER
   NWS QUALITY CONTROL.

LAZ040-048-061>063-065-066-069-111600-
SOUTHEAST LOUISIANA

CITY           SKY/WX    TMP DP  RH WIND       PRES   REMARKS
N.O. AUDUBON   NOT AVBL
N.O. INTL ARPT MOSUNNY   56  47  71 E8        30.25R
N.O. LAKEFRONT SUNNY     55  46  71 E12       30.26R
N.O. DOWNTOWN*   N/A     56  45  66 CALM      30.26R
RESERVE*       FAIR      57  46  66 E7        30.26R
SLIDELL        SUNNY     52  35  52 E7        30.26R
BATON ROUGE    SUNNY     51  39  63 E12       30.22F
BOOTHVILLE     SUNNY     54  52  93 NE8       30.27R
BELLE CHASSE   SUNNY     56  47  71 E8        30.25R
BOGALUSA*      PTSUNNY   48  31  52 SE3       30.28R
GALLIANO*      SUNNY     58  46  64 E6        30.23S
NEW ROADS*     FAIR      50  38  62 SE8       30.22S
GONZALES*      FAIR      53  44  71 E3        30.23S
HAMMOND*       SUNNY     50  30  46 E7        30.26S
HOUMA*         NOT AVBL
PORT FOURCHON* SUNNY     64  52  63 SE10      30.24R

$$

LAZ041-044-053-054-111600-
SOUTHWEST LOUISIANA

CITY           SKY/WX    TMP DP  RH WIND       PRES   REMARKS
LAKE CHARLES   CLOUDY    55  49  80 SE13      30.15S
LAFAYETTE      PTSUNNY   54  43  66 VRB3      30.20R
PATTERSON      SUNNY    N/A N/A N/A E13       30.22S
SALT POINT     NOT AVBL
NEW IBERIA     MOSUNNY   56  43  61 SE10      30.21R
CHENAULT AIRPK NOT AVBL

$$

LAZ027-028-111600-
CENTRAL LOUISIANA

CITY           SKY/WX    TMP DP  RH WIND       PRES   REMARKS
FORT POLK      PTSUNNY   52  44  75 SE12      30.13S
ALEXANDRIA INT CLOUDY    49  37  63 SE14      30.15F
ALEXANDRIA     CLOUDY    51  38  60 S7        30.17F

$$

LAZ001-002-111600-
NORTHWEST LOUISIANA

CITY           SKY/WX    TMP DP  RH WIND       PRES   REMARKS
SHREVEPORT     CLOUDY    52  39  61 SE12      30.08R
BARKSDALE AFB  CLOUDY    51  36  57 S17       30.08S
DTN SHREVEPORT CLOUDY    51  35  54 SE10      30.08S

$$

LAZ014-016-111600-
NORTHEAST LOUISIANA

CITY           SKY/WX    TMP DP  RH WIND       PRES   REMARKS
MONROE         CLOUDY    48  32  53 VRB7      30.17S
TALLULAH       PTSUNNY   48  27  44 S10       30.21S

$$





USA.gov is the U.S. government's official web portal to all federal, state and local government web resources and services.